Weather in Belgorod

Russia / Belgorod Oblast     50°35′44″N   36°35′14″E
temp.,
°C
wind,
m/s
gust,
m/s
humid.,
%
clouds,
%
prec.,
mm/h
press.,
hPa
HPBL,
m
13 may, thu
thu1300:00+7ese51294100 0.1 1014330
03:00+6ese4109822 0.6 1014253
06:00+8sse489893 0.4 1013301
09:00+12sse5778100 0.4 1013919
12:00+15s5758100 0.0 10131491
15:00+17s565025 0.0 10131672
18:00+17s35589 0.0 1013419
21:00+12s126882 0.0 101410
14 may, fri
fri1400:00+11e226944 0.0 101419
03:00+11e3482100 0.0 101450
06:00+12e3891100 0.0 1013153
09:00+18ese6117891 0.0 1012575
12:00+22se71065100 0.0 1010959
15:00+23sse71161100 0.0 10101323
18:00+21se61174100 0.0 1009821
21:00+17sse3591100 0.4 100989
15 may, sat
sat1500:00+15sw358488 0.0 101083
03:00+12sw3490100 0.0 101063
06:00+13ssw3691100 0.0 1012165
09:00+17ssw57745 0.0 1013678
12:00+21sw685729 0.0 10131807
15:00+21sw575192 0.0 10132138
18:00+19sw246860 0.0 1013182
21:00+17s126890 0.0 101411
16 may, sun
sun1600:00+16sse2266100 0.0 101417
03:00+16s117165 0.0 101411
06:00+14e22804 0.0 101426
09:00+20ese33641 0.0 1014403
12:00+23ese335122 0.0 10141464
15:00+24ene3348100 0.0 10131622
18:00+23ne356316 0.0 1012329
21:00+17ne368435 0.3 101185
17 may, mon
mon1700:00+16ene479346 0.1 1011115
03:00+15ene488686 0.1 1010121
06:00+14e4108655 0.0 1009181
09:00+21se6126082 0.0 1009469
12:00+25se7135021 0.0 10081074
15:00+26se8155457 0.0 10071923
18:00+24se612618 0.0 1006568
21:00+18se4128015 0.0 1007218